LINCON Weather Reports


time (UTC)temp
C
wind
direction
speed
KPH
gust
KPH
rain 1hr
cm
rain 24hr
cm
rain mn
cm
humidity
%
barometer
mb
20260503180508 27 0 0.0 0.0 0.00 0.00 0.00 43 1006.7
20260503180008 27 0 0.0 0.0 0.00 0.00 0.00 43 1006.6
20260503175508 26 0 0.0 0.0 0.00 0.00 0.00 44 1006.6
20260503175008 27 0 0.0 0.0 0.00 0.00 0.00 43 1006.6
20260503174509 27 0 0.0 0.0 0.00 0.00 0.00 43 1006.6
20260503174008 27 0 0.0 0.0 0.00 0.00 0.00 45 1006.6
20260503173508 27 0 0.0 0.0 0.00 0.00 0.00 45 1006.6
20260503173009 27 0 0.0 0.0 0.00 0.00 0.00 45 1006.7
20260503172508 27 0 0.0 0.0 0.00 0.00 0.00 45 1006.6
20260503172008 27 0 0.0 0.0 0.00 0.00 0.00 46 1006.6
20260503171508 27 0 0.0 0.0 0.00 0.00 0.00 46 1006.9
20260503171008 26 0 0.0 0.0 0.00 0.00 0.00 47 1006.9
20260503170508 26 0 0.0 0.0 0.00 0.00 0.00 47 1006.9
20260503151008 19 0 0.0 0.0 0.00 0.00 0.00 84 1006.7
20260503150508 18 0 0.0 0.0 0.00 0.00 0.00 86 1006.8
20260503131008 11 0 0.0 0.0 0.00 0.00 0.00 97 1006.6
20260503130508 11 0 0.0 0.0 0.00 0.00 0.00 97 1006.6
20260503110508 10 0 0.0 0.0 0.00 0.00 0.00 96 1007.2
20260503090508 11 0 0.0 0.0 0.00 0.00 0.00 96 1008.1
20260503081508 11 0 0.0 0.0 0.00 0.00 0.00 97 1008.7
20260503081008 11 0 0.0 0.0 0.00 0.00 0.00 97 1008.7
20260503080508 11 0 0.0 0.0 0.00 0.00 0.00 97 1008.5
20260503072508 11 0 0.0 0.0 0.00 0.00 0.00 96 1008.7
20260503072008 11 0 0.0 0.0 0.00 0.00 0.00 96 1008.9
20260503071508 11 0 0.0 0.0 0.00 0.00 0.00 96 1008.9
20260503071008 11 0 0.0 0.0 0.00 0.00 0.00 96 1008.9
20260503070508 11 0 0.0 0.0 0.00 0.00 0.00 96 1008.9
20260503055009 12 0 0.0 0.0 0.00 0.00 0.00 94 1009.0
20260503054508 12 0 0.0 0.0 0.00 0.00 0.00 94 1009.1
20260503054008 12 0 0.0 0.0 0.00 0.00 0.00 93 1009.1
20260503053510 12 0 0.0 0.0 0.00 0.00 0.00 93 1009.1
20260503053009 12 0 0.0 0.0 0.00 0.00 0.00 93 1009.2
20260503052510 12 0 0.0 0.0 0.00 0.00 0.00 93 1009.2
20260503051508 12 0 0.0 0.0 0.00 0.00 0.00 93 1009.1
20260503051056 12 0 0.0 0.0 0.00 0.00 0.00 93 1009.1
20260503051008 12 0 0.0 0.0 0.00 0.00 0.00 93 1009.1
20260503050508 12 0 0.0 0.0 0.00 0.00 0.00 93 1009.0
20260503050008 12 0 0.0 0.0 0.00 0.00 0.00 93 1009.0
20260503045508 12 0 0.0 19.3 0.00 0.00 0.00 94 1009.0
20260503045008 12 0 0.0 19.3 0.00 0.00 0.00 93 1009.0
20260503044508 12 341 0.0 19.3 0.00 0.00 0.00 94 1008.9
20260503044007 12 344 0.0 19.3 0.00 0.00 0.00 94 1009.0
20260503043508 12 347 9.7 19.3 0.00 0.00 0.00 94 1009.1
20260503043008 12 340 6.4 19.3 0.00 0.00 0.00 93 1009.1
20260503042508 12 334 9.7 19.3 0.00 0.00 0.00 93 1009.0
20260503042009 12 343 9.7 17.7 0.00 0.00 0.00 92 1009.1
20260503041508 12 340 6.4 17.7 0.00 0.00 0.00 92 1009.2
20260503041008 12 352 1.6 16.1 0.00 0.00 0.00 92 1009.1
20260503040508 12 344 3.2 20.9 0.00 0.00 0.00 91 1009.2
20260503040008 12 345 4.8 20.9 0.00 0.00 0.00 91 1009.1
20260503035508 12 343 12.9 20.9 0.00 0.00 0.00 90 1009.1
20260503035008 12 341 14.5 14.5 0.00 0.00 0.00 90 1009.0
20260503034508 12 336 0.0 17.7 0.00 0.00 0.00 90 1009.0
20260503034008 12 337 0.0 17.7 0.00 0.00 0.00 89 1009.0
20260503033508 12 350 4.8 17.7 0.00 0.00 0.00 89 1009.0
20260503033008 13 343 8.0 19.3 0.00 0.00 0.00 88 1008.9
20260503032508 13 348 9.7 19.3 0.00 0.00 0.00 88 1008.9
20260503032008 13 343 8.0 19.3 0.00 0.00 0.00 87 1008.8
20260503031508 13 350 12.9 17.7 0.00 0.00 0.00 87 1008.7
20260503031007 13 0 0.0 14.5 0.00 0.00 0.00 86 1008.8
20260503030508 13 337 6.4 16.1 0.00 0.00 0.00 86 1009.0
20260503030008 13 343 3.2 16.1 0.00 0.00 0.00 86 1008.9
20260503025508 13 354 11.3 16.1 0.00 0.00 0.00 85 1008.9
20260503025008 13 351 9.7 17.7 0.00 0.00 0.00 85 1009.0
20260503024508 13 345 6.4 17.7 0.00 0.00 0.00 85 1009.0
20260503024008 13 331 11.3 17.7 0.00 0.00 0.00 85 1008.9
20260503023508 13 352 4.8 16.1 0.00 0.00 0.00 86 1008.8
20260503023008 13 343 6.4 16.1 0.00 0.00 0.00 86 1008.8
20260503022508 13 337 1.6 24.1 0.00 0.00 0.00 86 1008.6
20260503022009 13 337 11.3 24.1 0.00 0.00 0.00 86 1008.5
20260503021507 13 348 14.5 24.1 0.00 0.00 0.00 86 1008.5
20260503021007 13 336 16.1 29.0 0.00 0.00 0.00 86 1008.6
20260503020507 13 337 17.7 29.0 0.00 0.00 0.00 85 1008.6
20260503020007 13 334 17.7 29.0 0.00 0.00 0.00 84 1008.7
20260503015507 13 333 17.7 30.6 0.00 0.00 0.00 84 1008.7
20260503015007 14 343 17.7 30.6 0.00 0.00 0.00 83 1008.7
20260503014507 14 343 16.1 30.6 0.00 0.00 0.00 82 1008.7
20260503014007 14 351 16.1 25.7 0.00 0.00 0.00 82 1008.7
20260503013507 14 334 12.9 25.7 0.00 0.00 0.00 82 1008.8
20260503013007 14 347 11.3 25.7 0.00 0.00 0.00 82 1008.8
20260503012507 14 344 6.4 24.1 0.00 0.00 0.00 82 1008.9
20260503012007 14 343 9.7 25.7 0.00 0.00 0.00 82 1008.9
20260503011507 14 345 12.9 25.7 0.00 0.00 0.00 81 1009.0
20260503011007 15 343 16.1 25.7 0.00 0.00 0.00 81 1008.9
20260503010507 15 330 14.5 25.7 0.00 0.00 0.00 80 1009.1
20260503010007 15 331 12.9 25.7 0.00 0.00 0.00 80 1009.0
20260503005507 15 340 12.9 27.4 0.00 0.00 0.00 80 1008.9
20260503005008 15 340 19.3 27.4 0.00 0.00 0.00 80 1009.0
20260503004507 15 347 16.1 27.4 0.00 0.00 0.00 80 1009.1
20260503004007 15 343 11.3 27.4 0.00 0.00 0.00 80 1009.1
20260503003507 15 347 14.5 27.4 0.00 0.00 0.00 80 1009.0
20260503003007 15 331 14.5 27.4 0.00 0.00 0.00 79 1008.9
20260503002507 15 334 17.7 29.0 0.00 0.00 0.00 79 1008.8
20260503002008 15 344 16.1 29.0 0.00 0.00 0.00 78 1008.9
20260503001508 15 347 17.7 29.0 0.00 0.00 0.00 77 1009.0
20260503001007 15 324 11.3 27.4 0.00 0.00 0.00 77 1008.9
20260503000507 15 348 14.5 27.4 0.00 0.00 0.00 77 1009.0
20260503000008 15 338 19.3 27.4 0.00 0.00 0.00 77 1009.1
20260502235507 15 350 14.5 25.7 0.00 0.00 0.00 78 1009.2
20260502235007 15 344 16.1 22.5 0.00 0.00 0.00 78 1009.1
20260502234507 15 343 9.7 22.5 0.00 0.00 0.00 79 1009.2
20260502234007 15 337 12.9 22.5 0.00 0.00 0.00 78 1009.3
20260502233507 15 337 11.3 22.5 0.00 0.00 0.00 78 1009.3
20260502233007 15 355 11.3 22.5 0.00 0.00 0.00 78 1009.4
20260502232507 15 338 14.5 22.5 0.00 0.00 0.00 77 1009.6
20260502232007 15 352 14.5 22.5 0.00 0.00 0.00 76 1009.6
20260502231507 16 345 8.0 22.5 0.00 0.00 0.00 75 1009.6
20260502231007 16 350 14.5 22.5 0.00 0.00 0.00 74 1009.8
20260502230507 16 351 8.0 22.5 0.00 0.00 0.00 74 1009.7
20260502230007 16 348 14.5 24.1 0.00 0.00 0.00 74 1009.7
20260502225508 16 354 12.9 24.1 0.00 0.00 0.00 75 1009.8
20260502225007 16 338 9.7 24.1 0.00 0.00 0.00 75 1009.9
20260502224507 16 345 11.3 24.1 0.00 0.00 0.00 76 1010.0
20260502224007 16 340 17.7 24.1 0.00 0.00 0.00 74 1010.0
20260502223507 16 336 17.7 24.1 0.00 0.00 0.00 73 1010.0
20260502223007 16 343 16.1 27.4 0.00 0.00 0.00 71 1010.1
20260502222507 17 344 14.5 27.4 0.00 0.00 0.00 71 1010.1
20260502222008 17 343 16.1 27.4 0.00 0.00 0.00 69 1010.1
20260502221507 17 348 17.7 25.7 0.00 0.00 0.00 69 1010.2
20260502221007 17 341 12.9 24.1 0.00 0.00 0.00 71 1010.2
20260502220508 17 357 11.3 24.1 0.00 0.00 0.00 71 1010.3
20260502220007 17 1 9.7 19.3 0.00 0.00 0.00 73 1010.3
20260502215508 17 345 14.5 22.5 0.00 0.00 0.00 74 1010.3
20260502215007 16 350 12.9 22.5 0.00 0.00 0.00 75 1010.2
20260502214508 16 350 12.9 22.5 0.00 0.00 0.00 75 1010.2
20260502214007 16 334 8.0 14.5 0.00 0.00 0.00 76 1010.3
20260502213508 16 326 8.0 12.9 0.00 0.00 0.00 75 1010.3
20260502213007 16 336 6.4 17.7 0.00 0.00 0.00 75 1010.3
20260502212507 15 350 6.4 17.7 0.00 0.00 0.00 74 1010.3
20260502212007 15 347 12.9 17.7 0.00 0.00 0.00 73 1010.4
20260502211507 16 348 11.3 20.9 0.00 0.00 0.00 72 1010.5
20260502211007 16 350 11.3 20.9 0.00 0.00 0.00 71 1010.6
20260502210507 16 351 8.0 20.9 0.00 0.00 0.00 70 1010.7
20260502210007 17 324 8.0 16.1 0.00 0.00 0.00 70 1010.6
20260502205507 17 348 8.0 17.7 0.00 0.00 0.00 72 1010.7
20260502205008 16 7 8.0 17.7 0.00 0.00 0.00 71 1010.7
20260502204507 16 351 11.3 17.7 0.00 0.00 0.00 70 1010.9
20260502204007 16 351 8.0 25.7 0.00 0.00 0.00 69 1011.1
20260502203507 16 345 11.3 25.7 0.00 0.00 0.00 69 1011.1
20260502203007 17 347 11.3 25.7 0.00 0.00 0.00 68 1011.1
20260502202507 17 345 17.7 17.7 0.00 0.00 0.00 69 1011.0
20260502202007 17 350 8.0 20.9 0.00 0.00 0.00 68 1011.3
20260502201507 17 348 12.9 20.9 0.00 0.00 0.00 67 1011.3
20260502201007 17 345 9.7 20.9 0.00 0.00 0.00 66 1011.3
20260502200507 17 345 8.0 20.9 0.00 0.00 0.00 66 1011.2
20260502200007 17 340 11.3 17.7 0.00 0.00 0.00 65 1011.3
20260502195507 17 345 11.3 24.1 0.00 0.00 0.00 63 1011.3
20260502195059 18 337 9.7 24.1 0.00 0.00 0.00 61 1011.4
20260502195007 18 337 9.7 24.1 0.00 0.00 0.00 61 1011.4
20260502194507 18 340 17.7 24.1 0.00 0.00 0.00 59 1011.5
20260502194007 19 350 11.3 22.5 0.00 0.00 0.00 59 1011.7
20260502193507 20 350 8.0 27.4 0.00 0.00 0.00 59 1011.7
20260502193007 20 352 12.9 27.4 0.00 0.00 0.00 59 1011.4
20260502192507 20 357 12.9 27.4 0.00 0.00 0.00 60 1011.6
20260502192007 19 337 9.7 30.6 0.00 0.00 0.00 60 1011.6
20260502191507 19 343 20.9 30.6 0.00 0.00 0.00 59 1011.7
20260502191007 19 344 16.1 30.6 0.00 0.00 0.00 59 1011.7
20260502190507 20 336 19.3 27.4 0.00 0.00 0.00 59 1011.8
20260502190007 20 336 14.5 27.4 0.00 0.00 0.00 60 1011.9
20260502185507 19 347 11.3 27.4 0.00 0.00 0.00 62 1011.9
20260502185007 19 340 16.1 27.4 0.00 0.00 0.00 61 1011.8
20260502184508 18 337 17.7 27.4 0.00 0.00 0.00 64 1011.9
20260502184007 18 343 17.7 27.4 0.00 0.00 0.00 66 1012.0
20260502183507 18 347 17.7 27.4 0.00 0.00 0.00 67 1012.3
20260502183007 17 355 14.5 25.7 0.00 0.00 0.00 69 1012.3
20260502182507 17 338 19.3 29.0 0.00 0.00 0.00 69 1012.3
20260502182008 16 337 16.1 29.0 0.00 0.00 0.00 70 1012.3
20260502181508 16 340 16.1 29.0 0.00 0.00 0.00 71 1012.2